#timestamp,LO_Frequency,Hit,StdDev 
1644188415.4,286047004.4,N
1644188435.3,286047003.7,N
1644188455.1,286047000.8,N
1644188456.0,286047000.8,N
1644188475.8,286047000.7,N
1644188495.7,286046999.9,N
1644188515.5,286046998.5,N
1644188535.3,286046998.8,N
1644188555.2,286047000.0,N
1644188575.0,286046999.9,N
1644188575.9,286046999.9,N
1644188595.8,286047002.7,N
1644188615.6,286047001.8,N
1644188635.4,286047000.6,N
1644188655.3,286047000.0,N
1644188675.1,286046998.4,N
1644188695.8,286046995.4,N
1644188715.7,286046999.5,N
1644188735.5,286047000.1,N
1644188755.4,286047002.7,N
1644188775.2,286047004.3,N
1644188795.0,286046998.8,N
1644188795.9,286046998.8,N
1644188815.8,286046997.0,N
1644188835.6,286047000.7,N
1644188855.4,286046999.2,N
1644188875.3,286046999.5,N
1644188895.1,286047000.9,N
1644188915.9,286046999.3,N
1644188935.7,286047002.8,N
1644188955.5,286047005.9,N
1644188975.4,286047001.4,N
1644188995.2,286047000.3,N
1644189015.0,286047000.0,N
1644189015.9,286047000.0,N
1644189035.8,286047003.9,N
1644189055.6,286047004.2,N
1644189075.5,286047000.3,N
1644189095.3,286046996.5,N
1644189115.1,286046997.1,N
1644189135.9,286046997.6,N
1644189155.7,286046997.1,N
1644189175.6,286046995.6,N
1644189195.4,286046997.7,N
1644189215.2,286046997.0,N
1644189235.1,286047000.5,N
1644189236.0,286047000.5,N
1644189255.8,286046998.1,N
1644189275.6,286046996.9,N
1644189295.5,286046999.2,N
1644189315.3,286046995.8,N
1644189335.2,286046996.2,N
1644189355.9,286046996.1,N
1644189375.7,286046993.3,N
1644189395.6,286046992.3,N
1644189415.4,286046996.1,N
1644189435.2,286046996.7,N
1644189455.1,286046999.2,N
1644189456.0,286046999.2,N
1644189475.8,286046996.8,N
1644189495.7,286046999.5,N
1644189515.5,286046995.3,N
1644189535.3,286046995.0,N
1644189555.2,286046997.6,N
1644189575.0,286046995.8,N
1644189575.9,286046995.8,N
1644189595.7,286046996.3,N
1644189615.6,286046995.0,N
1644189635.4,286046993.7,Y
1644189655.3,286047002.0,P
1644189675.1,286047004.4,N
1644189676.0,286047004.4,N
1644189695.8,286046998.4,N
1644189715.7,286046998.9,N
1644189735.5,286046995.0,N
1644189755.3,286046995.7,N
1644189775.2,286046996.3,N
1644189795.0,286046995.9,N
1644189795.9,286046995.9,N
1644189815.8,286046995.6,N
1644189835.6,286046997.1,N
1644189855.4,286046993.9,N
1644189875.3,286046993.6,N
1644189895.1,286046992.1,N
1644189915.9,286046991.9,N
1644189935.7,286046992.4,N
1644189955.5,286046991.9,N
1644189975.4,286046990.6,N
1644189995.2,286046993.0,N
1644190015.0,286046993.2,N
1644190015.9,286046993.2,N
1644190035.8,286046992.6,N
1644190055.6,286046986.3,Y
1644190075.5,286046996.9,P
1644190095.3,286046998.0,P
1644190115.1,286046998.0,N
1644190135.9,286046996.2,Y
1644190155.7,286046998.8,P
1644190175.5,286047001.0,N
1644190195.4,286046999.9,N
1644190215.2,286046999.0,N
1644190235.1,286047005.5,Y
1644190236.0,286047005.5,P
1644190255.8,286047003.5,N
1644190275.6,286047005.3,N
1644190295.5,286047005.7,N
1644190315.3,286047002.2,N
1644190335.1,286047001.5,N
1644190355.9,286047004.7,N
1644190375.7,286047003.4,N
1644190395.6,286047002.3,N
1644190415.4,286047003.9,N
1644190435.2,286047002.2,N
1644190455.1,286047002.0,N
1644190456.0,286047002.0,N
1644190475.8,286047002.8,N
1644190495.7,286046998.9,N
1644190515.5,286046998.4,N
1644190535.3,286046998.5,N
1644190555.2,286046998.2,N
1644190575.9,286046998.2,N
1644190595.7,286047000.6,N
1644190615.6,286047000.9,N
1644190635.4,286047002.5,N
1644190655.3,286047000.1,N
1644190675.1,286046999.1,N
1644190676.0,286046999.1,N
1644190695.8,286046999.4,N
1644190715.7,286047000.1,N
1644190735.5,286047002.8,N
1644190755.3,286047002.7,N
1644190775.2,286046999.8,N
1644190795.0,286046997.4,N
1644190795.9,286046997.4,N
1644190815.8,286046997.0,N
1644190835.6,286046998.3,N
1644190855.4,286046999.1,N
1644190875.3,286046998.5,N
1644190895.1,286046997.1,N
1644190915.9,286046994.9,N
1644190935.7,286047000.6,N
1644190955.5,286047000.6,N
1644190975.4,286046998.8,N
1644190995.2,286046995.0,N
1644191015.0,286046995.9,N
1644191015.9,286046995.9,N
1644191035.8,286046995.1,N
1644191055.6,286046994.2,N
1644191075.5,286047001.2,N
1644191095.3,286047001.1,N
1644191115.1,286046998.4,N
1644191135.9,286046996.6,N
1644191155.7,286047000.1,N
1644191175.5,286047000.3,N
1644191195.4,286046996.7,N
1644191215.2,286046999.5,N
1644191235.1,286046997.9,N
1644191236.0,286046997.9,N
1644191255.8,286046996.5,N
1644191275.6,286046998.4,N
1644191295.5,286046998.3,N
1644191315.3,286046997.6,N
1644191335.2,286046994.9,N
1644191355.9,286046995.1,N
1644191375.7,286046995.0,N
1644191395.6,286046997.4,N
1644191415.4,286046992.4,Y
1644191435.2,286046995.6,P
1644191455.1,286046995.3,P
1644191456.0,286046995.3,P
1644191475.8,286046995.0,Y
1644191495.7,286047000.8,P
1644191515.5,286046998.1,N
1644191535.3,286046998.8,N
1644191555.2,286046996.6,N
1644191575.0,286046998.2,N
1644191575.9,286046998.2,N
1644191595.7,286047000.7,N
1644191615.6,286047000.1,N
1644191635.4,286047000.5,N
1644191655.3,286047002.5,N
1644191675.1,286047004.3,N
1644191676.0,286047004.3,N
1644191695.8,286047003.5,N
1644191715.7,286047002.0,N
1644191735.5,286047002.8,N
1644191755.3,286047000.2,N
1644191775.2,286046998.3,N
1644191795.0,286047001.0,N
1644191795.9,286047001.0,N
1644191815.8,286046998.1,N
1644191835.6,286047001.2,N
1644191855.4,286046998.2,N
1644191875.3,286046998.2,N
1644191895.1,286046998.5,N
1644191915.8,286046998.3,N
1644191935.7,286046998.3,N
1644191955.5,286047000.4,N
1644191975.4,286047001.6,N
1644191995.2,286047002.8,N
